Date,TemperatureHighF,TemperatureAvgF,TemperatureLowF,DewpointHighF,DewpointAvgF,DewpointLowF,HumidityHigh,HumidityAvg,HumidityLow,PressureMaxIn,PressureMinIn,WindSpeedMaxMPH,WindSpeedAvgMPH,GustSpeedMaxMPH,PrecipitationSumIn
2013-1-1,30.0,24.5,20.0,28.2,20.3,14.0,93,84,68,30.01,29.88,18,4,19,0.00
2013-1-2,23.0,19.7,19.0,18.5,15.3,12.1,92,83,69,30.15,29.97,16,6,17,0.00
2013-1-3,26.0,21.5,16.0,24.0,17.2,11.2,92,83,70,30.14,29.99,22,7,24,0.00
2013-1-4,31.0,26.5,25.0,23.5,19.3,15.5,90,75,58,30.11,29.96,31,13,32,0.00
2013-1-5,29.0,26.6,25.0,24.4,21.8,19.7,88,82,74,30.30,30.06,19,6,20,0.00
2013-1-6,33.0,31.6,29.0,31.5,28.2,22.7,98,87,77,30.10,29.89,17,7,20,0.00
2013-1-7,32.0,28.3,24.0,31.0,24.4,20.4,96,85,75,30.39,30.10,16,4,16,0.00
2013-1-8,40.0,26.4,13.0,24.7,19.8,11.8,98,78,47,30.31,30.20,14,2,14,0.00
2013-1-9,45.0,33.6,18.0,35.7,26.0,16.8,98,76,48,30.41,30.05,28,8,31,0.37
2013-1-10,42.0,32.2,22.0,30.8,26.8,20.5,95,81,60,30.59,30.33,10,2,13,0.00
2013-1-11,44.0,40.5,33.0,43.0,33.5,18.9,100,78,39,30.33,29.90,25,6,27,0.20
2013-1-12,55.0,47.8,39.0,51.1,46.4,38.7,100,95,83,30.04,29.96,14,3,14,0.01
2013-1-13,63.0,54.4,43.0,55.3,50.5,42.5,100,87,75,29.96,29.77,24,5,26,0.05
2013-1-14,56.0,31.1,25.0,53.7,26.5,19.8,96,83,70,30.39,29.79,37,7,37,0.04
2013-1-15,31.0,26.4,24.0,21.8,19.4,15.3,84,75,55,30.38,30.09,10,2,11,0.00
2013-1-16,35.0,30.7,27.0,29.5,24.3,20.3,88,77,65,30.09,29.80,22,5,24,0.00
2013-1-17,32.0,28.5,20.0,27.7,24.2,16.8,96,84,66,30.11,29.89,25,6,30,0.00
2013-1-18,29.0,20.9,15.0,18.0,11.6,6.0,92,68,53,30.41,30.08,22,7,23,0.00
2013-1-19,48.0,40.4,29.0,27.7,21.5,13.6,54,47,37,30.09,29.65,27,10,32,0.00
2013-1-20,45.0,26.7,17.0,30.5,18.1,9.9,91,72,44,30.06,29.55,53,14,53,0.00
2013-1-21,19.0,16.0,11.0,15.8,12.2,6.1,93,85,60,30.03,29.82,27,7,30,0.00
2013-1-22,11.0,5.3,3.0,9.4,2.6,-2.4,93,88,76,30.13,29.88,30,9,32,0.00
2013-1-23,11.0,6.8,3.0,5.7,3.2,0.0,91,85,72,30.16,30.01,16,4,18,0.00
2013-1-24,14.0,3.9,-6.0,10.4,0.1,-8.4,92,85,66,30.47,30.00,14,1,15,0.00
2013-1-25,13.0,7.0,-5.0,10.1,4.1,-7.6,91,88,75,30.45,29.98,9,1,10,0.00
2013-1-26,23.0,15.9,11.0,18.5,13.3,8.9,95,89,73,30.38,30.01,8,1,8,0.00
2013-1-27,29.0,21.5,11.0,19.5,15.9,9.4,95,80,62,30.49,30.27,10,1,11,0.00
2013-1-28,43.0,35.1,25.0,42.7,33.4,16.8,100,94,66,30.28,29.88,16,6,19,0.91
2013-1-29,57.0,43.8,34.0,53.2,43.5,34.0,100,99,80,30.02,29.73,19,4,20,0.53
2013-1-30,61.0,56.4,47.0,54.4,50.4,42.1,93,81,66,29.73,29.10,31,10,37,0.48
2013-1-31,47.0,24.2,17.0,43.0,20.5,13.3,98,86,72,29.72,29.12,41,16,49,0.14
2013-2-1,17.0,14.3,9.0,14.8,12.1,4.6,96,91,82,30.18,29.71,24,10,26,0.00
2013-2-2,17.0,13.0,9.0,15.1,8.9,2.7,92,83,75,30.19,29.89,16,4,19,0.00
2013-2-3,21.0,16.1,12.0,18.0,13.3,9.7,96,89,67,29.90,29.73,21,4,23,0.00
2013-2-4,21.0,16.3,13.0,16.8,13.5,10.1,95,89,78,29.94,29.83,25,4,27,0.00
2013-2-5,26.0,20.1,11.0,19.7,15.9,9.6,95,84,67,29.87,29.77,16,2,18,0.00
2013-2-6,26.0,20.3,6.0,24.0,15.8,3.9,96,83,61,30.32,29.85,14,4,18,0.00
2013-2-7,39.0,23.5,3.0,23.7,15.8,1.0,94,74,52,30.30,29.96,22,4,22,0.01
2013-2-8,34.0,27.0,14.0,33.2,24.0,11.9,97,88,73,30.08,29.70,29,7,30,0.30
2013-2-9,25.0,15.6,5.0,17.3,11.9,3.2,94,85,66,30.36,30.08,12,2,13,0.04
2013-2-10,46.0,23.9,0.0,20.6,11.3,-2.0,93,65,28,30.33,29.91,21,4,24,0.16
2013-2-11,48.0,36.4,30.0,42.7,30.6,19.2,97,80,50,29.92,29.60,31,10,37,0.08
2013-2-12,31.0,28.6,27.0,26.2,23.5,21.1,89,81,75,29.98,29.78,33,10,36,0.00
2013-2-13,40.0,29.2,24.0,25.1,23.1,21.0,92,79,52,29.88,29.66,12,2,14,0.00
2013-2-14,35.0,29.2,21.0,33.7,26.6,18.8,96,90,80,29.87,29.78,21,5,23,0.16
2013-2-15,35.0,29.1,21.0,32.1,22.5,13.4,89,76,65,30.03,29.79,31,8,32,0.00
2013-2-16,26.0,19.4,9.0,17.6,10.8,4.4,88,70,48,30.03,29.87,15,2,18,0.00
2013-2-17,16.0,13.3,9.0,13.6,9.2,5.4,94,84,69,30.16,29.86,20,4,26,0.00
2013-2-18,40.0,24.1,7.0,24.6,12.1,4.0,90,63,38,30.22,29.84,16,4,16,0.02
2013-2-19,42.0,31.4,18.0,37.2,26.5,12.6,98,83,51,29.84,29.56,32,10,32,0.28
2013-2-20,18.0,15.9,14.0,15.1,12.8,9.2,95,87,75,30.08,29.79,32,11,32,0.00
2013-2-21,22.0,16.0,10.0,15.6,12.1,7.2,94,84,68,30.34,30.06,16,4,19,0.00
2013-2-22,31.0,25.0,16.0,28.2,20.8,13.3,93,85,61,30.30,29.96,26,7,32,0.00
2013-2-23,35.0,29.5,26.0,32.2,27.3,21.6,97,91,83,29.97,29.84,20,4,20,0.11
2013-2-24,27.0,25.9,24.0,23.2,21.2,18.8,89,82,72,30.09,29.83,22,7,24,0.00
2013-2-25,38.0,27.4,21.0,25.3,21.2,18.2,95,79,52,30.20,30.08,9,2,11,0.02
2013-2-26,38.0,30.0,19.0,33.5,24.9,16.3,98,82,58,30.13,29.61,29,6,30,0.56
2013-2-27,37.0,34.6,32.0,36.5,33.1,31.2,99,94,86,29.61,29.53,21,4,24,0.57
2013-2-28,33.0,31.0,29.0,31.8,29.8,27.7,99,95,88,29.74,29.52,12,4,16,0.01
2013-3-1,29.0,25.4,23.0,28.5,23.3,20.0,99,92,84,29.92,29.73,13,4,14,0.00
2013-3-2,23.0,21.4,20.0,21.5,18.8,15.8,94,90,78,29.91,29.86,13,3,15,0.00
2013-3-3,24.0,20.8,18.0,21.0,17.8,15.1,94,88,73,29.91,29.83,22,5,24,0.00
2013-3-4,24.0,21.2,18.0,21.3,18.2,14.8,93,88,83,30.04,29.91,20,7,24,0.00
2013-3-5,37.0,27.0,20.0,24.8,21.0,16.8,94,79,59,30.05,29.78,13,3,14,0.24
2013-3-6,40.0,33.1,27.0,28.4,24.3,21.1,83,71,53,30.10,29.78,16,4,16,0.04
2013-3-7,33.0,31.2,29.0,31.0,29.4,27.4,98,93,83,30.24,30.08,16,4,16,0.00
2013-3-8,40.0,31.1,22.0,29.7,25.3,18.5,99,81,50,30.39,30.24,15,4,19,0.12
2013-3-9,52.0,31.8,16.0,31.1,23.5,14.8,99,76,36,30.40,30.16,10,1,10,0.00
2013-3-10,65.0,49.4,31.0,30.3,25.4,20.0,85,41,26,30.17,29.97,20,5,23,0.00
2013-3-11,59.0,51.2,44.0,42.7,29.4,25.4,93,44,32,29.99,29.65,30,9,34,0.17
2013-3-12,45.0,34.6,30.0,43.1,32.3,26.6,98,92,78,29.92,29.71,16,5,18,0.33
2013-3-13,32.0,27.1,21.0,27.2,22.2,15.9,97,82,66,29.99,29.83,31,8,32,0.01
2013-3-14,28.0,23.6,20.0,20.5,16.3,13.4,94,74,58,30.10,29.99,29,9,29,0.00
2013-3-15,32.0,27.2,17.0,30.5,24.7,14.8,98,90,75,30.05,29.79,23,6,24,0.01
2013-3-16,31.0,27.0,23.0,28.5,23.0,18.3,95,85,71,29.95,29.71,10,2,11,0.03
2013-3-17,30.0,23.2,15.0,23.1,16.3,12.4,96,76,54,30.25,29.94,14,2,14,0.06
2013-3-18,32.0,26.3,20.0,30.2,21.0,12.1,93,81,57,30.22,29.65,31,8,32,0.00
2013-3-19,34.0,28.3,23.0,32.8,25.2,18.7,99,88,69,29.84,29.64,23,8,29,0.07
2013-3-20,27.0,22.2,14.0,23.5,19.1,11.1,96,88,67,29.84,29.80,24,7,24,0.00
2013-3-21,25.0,19.5,10.0,22.8,16.4,7.7,96,88,68,29.80,29.72,21,6,25,0.00
2013-3-22,27.0,24.0,21.0,22.0,20.9,19.2,96,88,76,29.96,29.76,24,8,26,0.00
2013-3-23,34.0,28.1,23.0,25.4,22.4,17.8,90,79,63,30.02,29.92,18,4,18,0.00
2013-3-24,37.0,27.2,12.0,25.0,18.9,10.4,96,73,49,30.01,29.58,15,3,18,0.25
2013-3-25,37.0,31.4,27.0,31.4,27.0,21.1,96,84,67,29.72,29.52,14,4,16,0.18
2013-3-26,42.0,33.1,24.0,30.3,26.8,22.3,95,79,54,29.99,29.72,18,4,21,0.00
2013-3-27,36.0,32.2,28.0,31.2,27.3,22.0,97,82,66,30.08,29.97,23,8,25,0.00
2013-3-28,36.0,32.2,29.0,32.5,30.6,28.8,100,94,82,30.22,30.04,12,4,13,0.14
2013-3-29,47.0,37.0,30.0,33.6,27.9,21.8,95,72,43,30.21,30.16,17,2,21,0.00
2013-3-30,50.0,36.0,22.0,27.7,22.9,17.3,96,64,29,30.21,30.02,14,2,14,0.00
2013-3-31,51.0,41.6,32.0,41.5,31.4,19.9,94,70,40,30.02,29.63,19,5,22,0.06
2013-4-1,43.0,32.0,24.0,40.3,24.5,9.7,96,76,43,29.97,29.59,27,9,31,0.17
2013-4-2,32.0,26.1,21.0,24.5,15.6,7.4,94,66,42,30.13,29.96,27,9,30,0.00
2013-4-3,31.0,26.9,22.0,22.0,16.7,11.8,78,65,50,30.40,30.12,26,6,30,0.00
2013-4-4,54.0,33.6,16.0,21.8,14.0,5.1,95,54,15,30.34,29.93,16,3,21,0.00
2013-4-5,41.0,33.5,26.0,28.6,22.8,18.2,80,65,49,30.15,29.88,19,4,21,0.00
2013-4-6,52.0,37.0,20.0,22.5,15.4,7.4,92,49,18,30.28,29.99,17,4,18,0.02
2013-4-7,67.0,52.5,37.0,44.7,31.8,15.5,87,47,28,30.03,29.79,34,9,36,0.00
2013-4-8,68.0,50.8,29.0,49.6,37.7,28.0,98,66,32,30.08,29.83,23,5,28,0.02
2013-4-9,69.0,56.1,41.0,52.0,44.2,38.6,95,67,38,30.12,29.83,32,6,34,0.00
2013-4-10,66.0,48.1,41.0,61.7,47.2,40.5,100,97,75,29.96,29.79,34,2,36,1.45
2013-4-11,42.0,39.1,35.0,42.0,37.6,32.6,100,94,88,30.01,29.73,21,5,25,0.08
2013-4-12,53.0,44.4,37.0,51.9,42.5,32.7,97,93,82,29.81,29.49,23,8,26,0.49
2013-4-13,42.0,37.7,34.0,35.4,32.4,27.5,97,82,61,29.97,29.79,24,9,26,0.16
2013-4-14,47.0,39.7,33.0,34.9,31.5,26.3,91,74,56,30.12,29.96,21,5,21,0.00
2013-4-15,70.0,56.4,39.0,47.0,40.4,32.6,82,57,37,30.10,30.02,25,8,28,0.00
2013-4-16,66.0,54.7,47.0,58.1,49.5,44.4,97,83,63,30.22,30.02,23,7,27,0.30
2013-4-17,64.0,50.6,40.0,44.8,36.1,30.4,92,60,36,30.32,30.12,9,2,11,0.01
2013-4-18,78.0,66.1,51.0,59.7,50.7,34.0,73,58,43,30.14,29.75,31,11,37,0.00
2013-4-19,68.0,55.9,39.0,58.1,46.8,27.5,96,72,60,29.79,29.44,32,11,37,0.30
2013-4-20,39.0,33.8,31.0,31.5,24.8,16.9,95,70,50,30.40,29.78,40,11,41,0.03
2013-4-21,49.0,35.8,25.0,29.8,23.6,18.0,88,63,34,30.62,30.39,13,3,14,0.00
2013-4-22,60.0,45.8,30.0,29.4,24.7,21.2,78,47,27,30.51,30.29,21,6,25,0.00
2013-4-23,69.0,53.1,37.0,34.7,29.8,24.0,69,44,23,30.31,29.95,19,6,21,0.00
2013-4-24,60.0,48.5,34.0,54.4,41.2,31.7,96,78,43,30.10,29.65,33,10,36,0.32
2013-4-25,53.0,40.6,33.0,37.6,31.5,23.0,95,74,35,30.33,30.09,23,6,26,0.07
2013-4-26,56.0,42.8,30.0,41.2,30.4,23.3,99,67,33,30.48,30.33,13,2,14,0.01
2013-4-27,71.0,52.1,32.0,38.3,30.9,25.6,87,50,21,30.42,30.20,11,2,11,0.00
2013-4-28,64.0,52.9,43.0,48.3,41.3,33.2,90,67,41,30.20,29.98,31,9,32,0.11
2013-4-29,58.0,52.9,48.0,51.9,48.2,44.0,90,84,78,30.05,29.95,20,8,23,0.01
2013-4-30,70.0,60.1,54.0,51.8,49.8,47.3,89,70,48,30.23,30.05,23,7,23,0.00
2013-5-1,78.0,64.4,52.0,49.2,44.0,31.1,85,52,26,30.35,30.23,19,6,19,0.00
2013-5-2,78.0,64.4,47.0,36.6,29.4,20.9,64,30,13,30.41,30.25,18,6,20,0.01
2013-5-3,76.0,63.6,47.0,42.7,37.5,30.2,75,41,25,30.31,30.19,23,6,24,0.00
2013-5-4,75.0,61.1,48.0,46.2,35.9,27.5,69,42,19,30.28,30.12,19,6,19,0.00
2013-5-5,77.0,61.4,43.0,43.7,32.5,16.1,88,43,13,30.20,30.06,20,4,23,0.00
2013-5-6,77.0,60.0,40.0,47.9,35.0,23.3,82,43,19,30.15,30.02,16,4,18,0.02
2013-5-7,78.0,63.8,48.0,52.2,46.1,37.8,94,57,26,30.12,29.99,18,3,21,0.00
2013-5-8,70.0,60.1,53.0,56.4,51.7,46.6,96,75,50,30.05,29.95,14,2,16,0.18
2013-5-9,70.0,60.0,52.0,57.7,53.4,47.0,98,81,48,30.01,29.91,17,3,20,0.03
2013-5-10,73.0,57.7,47.0,59.0,52.5,45.1,97,84,56,30.00,29.76,23,4,27,1.70
2013-5-11,58.0,49.7,44.0,56.9,46.6,41.5,97,89,79,29.82,29.72,21,7,24,0.11
2013-5-12,49.0,40.6,34.0,45.9,31.2,24.0,93,71,45,30.01,29.75,36,13,38,0.08
2013-5-13,44.0,36.3,32.0,31.6,28.5,24.2,92,74,48,30.14,29.98,19,7,21,0.01
2013-5-14,52.0,47.7,44.0,41.7,34.7,22.7,88,63,37,30.12,29.92,16,5,17,0.01
2013-5-15,79.0,61.1,45.0,58.7,47.3,38.5,85,63,39,29.93,29.66,32,6,37,0.00
2013-5-16,73.0,60.1,48.0,54.2,44.0,34.7,96,62,27,30.03,29.77,26,4,29,0.00
2013-5-17,72.0,56.2,41.0,46.7,41.1,35.4,94,60,30,30.22,30.02,9,2,11,0.01
2013-5-18,76.0,62.6,53.0,54.2,45.5,39.6,73,54,36,30.22,30.12,14,3,14,0.00
2013-5-19,79.0,66.2,58.0,60.2,56.5,51.9,86,72,49,30.17,30.03,17,5,19,0.07
2013-5-20,86.0,71.8,59.0,63.9,60.2,56.7,94,69,42,30.09,29.92,14,4,18,0.00
2013-5-21,86.0,74.4,63.0,67.9,62.4,56.4,94,70,38,29.98,29.83,34,6,37,0.23
2013-5-22,85.0,72.0,61.0,66.3,61.2,56.4,98,73,39,29.89,29.74,22,6,27,0.22
2013-5-23,73.0,62.2,44.0,62.0,57.4,42.7,96,85,58,29.94,29.78,18,6,22,0.80
2013-5-24,45.0,40.7,37.0,42.9,36.6,33.4,97,86,67,30.24,29.93,19,6,23,0.04
2013-5-25,56.0,46.3,38.0,39.1,35.1,29.8,93,67,43,30.29,30.21,24,5,26,0.00
2013-5-26,60.0,49.9,41.0,39.4,34.9,28.4,88,59,32,30.28,30.19,20,5,22,0.00
2013-5-27,69.0,53.0,34.0,45.8,38.7,32.0,96,63,28,30.30,30.15,11,2,12,0.00
2013-5-28,74.0,60.2,50.0,64.3,55.8,42.5,97,86,66,30.17,29.95,16,4,18,2.17
2013-5-29,81.0,70.8,61.0,65.5,62.3,59.6,97,76,53,30.11,29.97,23,7,26,0.14
2013-5-30,83.0,71.1,60.0,70.5,63.4,58.9,97,79,51,30.22,30.11,18,2,21,0.13
2013-5-31,86.0,73.0,59.0,66.7,61.0,56.9,97,70,40,30.15,30.02,18,4,21,0.00
2013-6-1,84.0,73.3,66.0,65.8,62.8,59.7,84,71,49,30.06,29.82,23,6,24,0.00
2013-6-2,76.0,68.2,59.0,65.1,59.4,52.7,95,75,49,29.95,29.76,31,8,37,0.51
2013-6-3,60.0,52.9,46.0,54.2,43.4,31.9,90,72,38,30.09,29.93,13,4,14,0.00
2013-6-4,66.0,53.9,42.0,47.2,41.5,35.1,97,67,35,30.20,30.08,14,2,18,0.01
2013-6-5,76.0,59.3,42.0,49.8,44.9,40.1,95,63,35,30.23,30.01,14,3,16,0.00
2013-6-6,63.0,59.4,58.0,59.7,56.5,47.4,99,91,61,30.02,29.82,16,3,18,2.19
2013-6-7,60.0,57.0,54.0,59.7,56.0,53.3,100,96,89,29.87,29.82,11,3,12,0.07
2013-6-8,63.0,57.8,53.0,55.4,53.5,50.7,97,86,69,30.14,29.87,13,3,13,0.01
2013-6-9,78.0,62.1,47.0,56.5,50.9,44.0,99,71,34,30.23,30.10,9,2,10,0.00
2013-6-10,70.0,66.2,62.0,66.9,62.4,55.0,96,88,70,30.11,29.77,14,5,15,0.41
2013-6-11,67.0,63.3,60.0,62.6,60.3,57.7,98,90,78,29.91,29.74,21,8,23,0.19
2013-6-12,77.0,66.8,59.0,65.6,60.0,54.5,98,81,50,29.96,29.80,7,2,8,0.18
2013-6-13,66.0,61.5,56.0,64.5,59.7,54.0,99,94,86,29.85,29.48,19,4,21,0.66
2013-6-14,71.0,61.5,55.0,57.9,55.8,53.9,97,83,60,30.06,29.83,16,4,17,0.01
2013-6-15,75.0,62.7,51.0,58.6,51.6,42.6,97,71,38,30.13,30.03,15,3,17,0.00
2013-6-16,72.0,65.0,58.0,62.7,58.6,53.5,94,80,67,30.04,29.82,29,6,31,0.02
2013-6-17,79.0,68.8,59.0,60.8,57.6,52.5,97,70,44,29.98,29.91,20,5,21,0.00
2013-6-18,73.0,64.2,53.0,60.3,55.4,45.4,94,74,59,30.06,29.91,16,3,19,0.02
2013-6-19,72.0,58.7,46.0,50.2,46.2,43.5,95,66,40,30.23,30.06,11,2,12,0.00
2013-6-20,76.0,61.9,45.0,55.0,48.7,42.8,95,65,39,30.29,30.22,15,2,16,0.00
2013-6-21,81.0,66.1,49.0,57.6,51.3,44.6,95,63,33,30.32,30.22,9,2,10,0.00
2013-6-22,86.0,72.5,57.0,65.3,60.8,55.0,95,69,45,30.24,30.10,19,4,26,0.00
2013-6-23,87.0,77.2,69.0,68.7,65.3,60.7,89,68,44,30.18,30.09,18,5,22,0.00
2013-6-24,86.0,76.2,68.0,68.7,64.8,59.8,86,69,45,30.16,30.04,19,3,21,0.00
2013-6-25,83.0,72.7,66.0,67.3,64.3,61.7,89,76,55,30.07,29.90,27,7,28,0.02
2013-6-26,80.0,70.9,65.0,66.2,64.1,62.0,93,80,56,29.94,29.86,17,4,17,0.01
2013-6-27,73.0,67.3,63.0,70.2,65.1,61.8,97,93,84,29.88,29.70,9,2,10,0.26
2013-6-28,72.0,65.5,60.0,65.6,62.6,58.3,98,91,72,29.70,29.54,12,2,13,0.49
2013-6-29,75.0,64.7,60.0,64.4,61.3,58.3,98,89,60,29.76,29.54,14,3,14,0.62
2013-6-30,77.0,67.5,61.0,66.0,62.7,60.2,99,86,62,29.95,29.75,11,2,12,0.01
2013-7-1,70.0,64.8,63.0,67.6,62.1,59.1,97,91,83,30.09,29.92,16,3,16,0.42
2013-7-2,83.0,69.5,61.0,69.4,64.5,59.3,97,85,56,30.14,30.01,12,3,14,0.23
2013-7-3,85.0,74.3,65.0,70.8,66.6,63.9,99,79,51,30.23,30.13,13,3,15,0.01
2013-7-4,81.0,73.6,68.0,70.2,66.6,63.9,95,80,58,30.27,30.19,13,4,14,0.44
2013-7-5,82.0,72.9,66.0,69.5,66.7,63.0,97,82,60,30.22,30.15,23,4,25,0.00
2013-7-6,86.0,74.4,67.0,70.2,67.0,64.1,96,80,51,30.24,30.11,16,3,19,0.09
2013-7-7,79.0,72.5,68.0,69.5,65.3,61.6,95,79,59,30.16,30.05,18,6,20,0.01
2013-7-8,84.0,73.1,65.0,68.0,64.9,62.0,91,77,52,30.16,30.09,15,4,17,0.00
2013-7-9,82.0,72.4,67.0,71.7,67.9,64.9,95,86,67,30.14,29.99,13,3,14,0.16
2013-7-10,85.0,72.5,65.0,72.3,67.8,63.5,96,86,62,30.00,29.85,37,7,42,0.36
2013-7-11,73.0,65.9,60.0,64.5,56.2,49.5,95,72,46,30.12,29.93,16,4,16,0.00
2013-7-12,74.0,64.7,55.0,61.7,58.3,54.2,98,81,62,30.24,30.08,12,2,14,0.00
2013-7-13,78.0,69.7,59.0,67.2,61.7,55.5,92,77,62,30.34,30.20,13,2,13,0.00
2013-7-14,88.0,75.8,64.0,70.4,66.3,62.5,98,75,48,30.39,30.32,12,3,13,0.00
2013-7-15,88.0,77.4,67.0,72.7,69.0,65.5,96,77,54,30.40,30.33,10,2,14,0.00
2013-7-16,88.0,78.2,67.0,72.4,68.6,65.5,96,75,51,30.39,30.31,11,2,12,0.00
2013-7-17,89.0,78.9,68.0,75.5,70.7,66.5,96,77,52,30.35,30.22,15,2,16,0.00
2013-7-18,90.0,80.2,71.0,76.5,69.9,66.1,95,73,47,30.25,30.07,19,3,21,0.00
2013-7-19,89.0,79.8,73.0,73.3,70.0,67.3,90,73,52,30.10,29.86,23,8,24,0.07
2013-7-20,77.0,71.8,66.0,69.4,66.1,63.0,96,83,69,29.98,29.79,20,6,24,0.77
2013-7-21,81.0,70.6,63.0,68.1,62.7,59.3,97,78,52,30.05,29.97,11,2,11,0.00
2013-7-22,82.0,69.6,61.0,67.7,63.6,59.6,97,83,55,30.04,29.83,15,2,15,0.14
2013-7-23,81.0,69.4,62.0,66.6,64.2,60.0,98,85,54,29.84,29.72,16,4,18,1.05
2013-7-24,66.0,59.9,52.0,60.0,51.9,47.0,93,75,56,30.09,29.81,15,4,18,0.00
2013-7-25,74.0,60.2,47.0,53.0,49.8,45.9,98,72,44,30.18,30.08,14,2,16,0.00
2013-7-26,80.0,64.3,49.0,59.7,53.5,47.9,97,72,39,30.18,30.05,10,2,10,0.00
2013-7-27,72.0,65.0,57.0,64.3,59.5,55.6,95,83,65,30.06,29.88,16,4,17,0.08
2013-7-28,71.0,64.4,57.0,62.3,54.5,47.4,92,72,46,30.06,29.87,22,6,23,0.01
2013-7-29,69.0,61.4,56.0,54.8,51.8,48.2,86,72,49,30.23,30.04,20,6,24,0.00
2013-7-30,73.0,63.2,53.0,59.2,54.5,51.5,97,75,50,30.28,30.21,16,2,16,0.00
2013-7-31,78.0,65.7,52.0,60.5,55.4,50.9,97,72,47,30.23,29.99,11,2,13,0.00
2013-8-1,76.0,68.0,60.0,64.3,59.5,54.4,93,75,51,29.99,29.88,23,5,24,0.02
2013-8-2,76.0,65.3,58.0,62.0,57.2,50.7,98,78,45,29.99,29.93,19,5,22,0.00
2013-8-3,74.0,66.8,59.0,62.2,56.2,48.6,94,71,43,30.04,29.93,15,5,19,0.01
2013-8-4,71.0,62.5,56.0,56.7,53.8,50.7,89,74,51,30.15,30.03,18,4,18,0.00
2013-8-5,71.0,59.7,47.0,55.2,50.3,45.4,96,74,45,30.19,30.08,11,1,13,0.00
2013-8-6,79.0,65.5,51.0,58.7,53.1,49.2,96,68,39,30.10,30.03,13,3,13,0.00
2013-8-7,80.0,70.1,62.0,66.9,62.1,57.7,91,77,58,30.06,29.94,18,5,19,0.00
2013-8-8,81.0,72.3,66.0,72.5,67.4,62.7,96,85,69,30.05,29.96,16,4,16,0.18
2013-8-9,76.0,68.8,59.0,69.5,63.5,52.5,97,84,59,30.06,29.93,11,3,13,0.02
2013-8-10,74.0,64.9,57.0,58.8,53.1,47.7,91,68,42,30.18,30.05,13,3,14,0.00
2013-8-11,77.0,63.6,51.0,56.7,52.6,48.6,97,71,40,30.21,30.11,10,2,10,0.00
2013-8-12,75.0,63.0,54.0,64.0,58.2,52.0,95,85,56,30.13,29.92,12,2,13,0.05
2013-8-13,66.0,61.6,53.0,63.6,56.2,44.2,98,83,58,29.99,29.83,23,5,26,0.90
2013-8-14,66.0,57.8,53.0,52.9,49.2,44.6,94,74,51,30.18,29.96,22,5,22,0.04
2013-8-15,69.0,56.4,46.0,54.8,50.3,0.0,98,82,55,30.22,30.15,18,2,19,0.00
2013-8-16,75.0,60.5,46.0,57.6,49.9,45.2,99,73,39,30.27,30.18,9,1,10,0.00
2013-8-17,78.0,63.3,49.0,58.8,53.3,47.9,98,73,43,30.34,30.26,10,1,11,0.00
2013-8-18,77.0,64.8,55.0,59.6,56.5,53.3,97,77,51,30.30,30.19,15,2,18,0.00
2013-8-19,76.0,65.9,58.0,65.9,60.6,56.0,95,84,62,30.21,30.13,13,2,14,0.00
2013-8-20,82.0,66.1,51.0,64.9,57.3,50.5,99,76,42,30.23,30.15,14,2,16,0.00
2013-8-21,84.0,68.7,55.0,65.7,59.1,53.2,98,75,40,30.26,30.12,10,2,11,0.00
2013-8-22,81.0,71.2,60.0,69.6,63.8,58.6,95,79,52,30.15,30.02,19,4,20,0.00
2013-8-23,79.0,68.3,56.0,65.0,56.5,47.9,96,69,37,30.26,30.06,14,2,16,0.00
2013-8-24,79.0,62.7,49.0,55.3,50.3,44.1,97,69,31,30.39,30.25,10,2,12,0.00
2013-8-25,81.0,66.3,50.0,60.2,53.3,48.9,97,67,35,30.42,30.25,16,4,18,0.00
2013-8-26,84.0,71.8,65.0,66.8,61.0,56.5,97,70,48,30.28,30.04,23,6,24,1.02
2013-8-27,85.0,72.2,66.0,72.3,67.5,64.1,99,87,59,30.05,29.94,17,3,19,0.01
2013-8-28,81.0,72.7,68.0,71.5,68.7,66.2,97,88,68,30.02,29.91,12,2,15,0.11
2013-8-29,85.0,72.3,62.0,68.7,65.0,60.4,99,80,48,30.13,30.02,10,2,12,0.00
2013-8-30,84.0,72.8,60.0,68.9,64.2,59.4,99,77,51,30.10,29.84,16,4,19,0.00
2013-8-31,79.0,72.4,67.0,70.6,67.6,63.6,95,85,70,29.92,29.81,14,3,16,0.05
2013-9-1,83.0,69.5,64.0,69.2,65.7,62.5,98,89,60,29.91,29.82,19,2,21,1.00
2013-9-2,78.0,68.6,63.0,70.1,65.4,56.0,99,90,71,29.89,29.80,25,4,27,0.51
2013-9-3,63.0,60.0,56.0,58.7,56.4,54.3,95,88,78,30.06,29.87,15,6,21,0.04
2013-9-4,75.0,63.5,52.0,59.7,54.6,48.2,99,76,40,30.11,30.05,23,6,23,0.00
2013-9-5,66.0,59.6,47.0,60.3,48.8,40.8,92,69,46,30.28,30.06,17,4,18,0.10
2013-9-6,72.0,54.5,39.0,50.4,42.6,32.6,98,69,34,30.34,30.17,8,1,8,0.00
2013-9-7,73.0,57.5,46.0,61.0,52.7,44.9,97,86,46,30.18,29.97,11,2,13,0.18
2013-9-8,69.0,61.0,50.0,63.7,55.4,46.8,99,84,51,30.16,29.93,13,3,15,0.00
2013-9-9,76.0,59.0,44.0,63.6,54.0,43.2,99,85,59,30.17,30.07,15,3,17,0.04
2013-9-10,90.0,76.4,63.0,73.4,69.0,61.5,97,80,56,30.16,30.02,18,5,20,0.00
2013-9-11,89.0,79.6,70.0,73.8,70.0,64.2,97,74,48,30.17,30.03,26,5,29,0.00
2013-9-12,72.0,67.3,59.0,68.8,63.6,52.2,97,88,77,30.09,29.82,18,4,21,0.10
2013-9-13,60.0,53.3,48.0,55.5,48.4,42.7,94,83,72,30.08,29.84,16,4,19,0.11
2013-9-14,61.0,51.4,41.0,44.7,40.2,29.8,89,68,36,30.20,30.06,14,3,16,0.01
2013-9-15,65.0,52.5,40.0,53.7,44.6,37.9,97,77,48,30.22,30.10,12,2,13,0.00
2013-9-16,59.0,51.9,41.0,56.1,49.7,39.7,98,92,82,30.39,30.13,13,2,14,0.06
2013-9-17,69.0,48.6,34.0,45.8,39.4,33.8,100,76,32,30.49,30.31,11,2,13,0.00
2013-9-18,74.0,55.4,38.0,51.6,44.9,36.0,97,72,39,30.32,30.14,12,2,16,0.00
2013-9-19,77.0,60.1,46.0,57.8,52.2,44.7,96,78,45,30.19,30.07,12,2,13,0.00
2013-9-20,77.0,66.3,53.0,66.1,60.5,52.2,98,83,67,30.09,29.85,16,4,18,0.00
2013-9-21,69.0,61.5,53.0,64.3,59.3,49.5,98,92,83,29.85,29.69,28,4,29,1.45
2013-9-22,54.0,51.2,48.0,49.8,45.6,42.4,93,81,69,30.07,29.82,13,3,15,0.02
2013-9-23,58.0,49.7,40.0,43.7,41.6,38.7,95,75,53,30.18,30.06,14,2,15,0.00
2013-9-24,67.0,49.5,35.0,52.6,43.2,34.8,100,82,52,30.19,30.04,10,1,10,0.00
2013-9-25,71.0,53.1,39.0,54.1,45.4,37.7,100,79,37,30.06,29.97,8,1,9,0.00
2013-9-26,71.0,54.4,39.0,53.2,47.3,37.7,100,80,47,30.18,30.03,11,2,13,0.00
2013-9-27,71.0,56.2,43.0,54.2,49.1,42.5,99,80,47,30.28,30.18,11,2,12,0.00
2013-9-28,72.0,57.2,44.0,55.8,49.0,42.5,99,77,47,30.33,30.20,14,3,16,0.00
2013-9-29,73.0,59.3,47.0,57.0,50.8,45.1,96,76,50,30.21,30.05,13,3,14,0.00
2013-9-30,72.0,60.2,51.0,58.8,54.5,49.0,95,82,58,30.08,30.02,16,3,18,0.00
2013-10-1,74.0,62.0,53.0,59.8,55.7,52.2,98,82,49,30.11,30.02,16,3,18,0.00
2013-10-2,76.0,61.7,51.0,63.0,55.9,48.6,97,83,48,30.16,30.03,15,3,18,0.00
2013-10-3,77.0,60.1,43.0,65.0,55.2,42.5,99,85,60,30.17,30.05,12,2,15,0.04
2013-10-4,77.0,67.2,62.0,68.6,63.8,60.6,98,89,69,30.13,30.06,16,3,16,0.07
2013-10-5,79.0,66.5,60.0,67.4,63.2,59.2,99,90,62,30.14,30.03,11,2,13,0.02
2013-10-6,80.0,71.6,65.0,67.3,63.9,57.8,98,79,59,30.03,29.78,24,5,24,0.02
2013-10-7,73.0,55.9,47.0,59.0,48.0,37.8,96,76,54,30.12,29.71,30,10,34,0.72
2013-10-8,65.0,51.0,41.0,52.2,44.2,40.7,100,81,45,30.37,30.12,8,1,10,0.02
2013-10-9,70.0,51.4,37.0,47.3,40.9,36.5,99,72,34,30.42,30.30,13,1,14,0.00
2013-10-10,70.0,51.0,37.0,45.1,39.3,26.3,98,70,23,30.32,30.16,10,1,11,0.00
2013-10-11,74.0,55.9,45.0,48.8,42.5,36.3,92,66,29,30.18,30.11,13,2,13,0.00
2013-10-12,78.0,58.3,43.0,54.7,45.7,39.1,93,67,35,30.23,30.13,13,2,15,0.00
2013-10-13,69.0,59.8,53.0,59.3,53.0,43.1,97,79,59,30.32,30.21,14,2,14,0.60
2013-10-14,63.0,54.1,44.0,58.2,48.8,41.1,99,83,57,30.39,30.30,14,2,16,0.23
2013-10-15,66.0,56.4,43.0,56.1,51.2,40.7,97,84,68,30.31,29.99,15,4,17,0.00
2013-10-16,62.0,58.4,53.0,58.9,54.3,49.6,96,87,71,30.00,29.82,19,6,21,0.43
2013-10-17,61.0,51.8,45.0,51.2,47.5,43.8,98,86,56,29.93,29.72,20,5,22,0.33
2013-10-18,58.0,50.6,46.0,45.6,41.8,35.3,94,74,44,29.97,29.82,23,8,26,0.02
2013-10-19,55.0,48.3,41.0,46.1,40.8,38.3,94,76,59,29.95,29.69,23,6,31,0.24
2013-10-20,54.0,45.2,38.0,40.5,37.7,34.9,95,77,53,30.01,29.85,26,8,28,0.09
2013-10-21,64.0,53.7,46.0,47.3,35.7,31.0,86,53,31,30.02,29.83,29,6,31,0.01
2013-10-22,49.0,43.2,37.0,46.1,35.6,27.6,95,76,52,29.90,29.80,24,8,31,0.27
2013-10-23,45.0,38.2,35.0,38.9,34.3,30.5,94,86,66,29.86,29.73,18,4,20,0.11
2013-10-24,38.0,34.4,32.0,36.0,33.0,31.2,99,95,85,30.06,29.84,18,8,21,0.53
2013-10-25,45.0,37.9,34.0,39.4,33.9,28.6,98,86,56,30.25,30.06,24,7,26,0.20
2013-10-26,43.0,39.0,35.0,34.9,27.7,24.4,92,64,52,30.17,29.82,29,10,32,0.03
2013-10-27,42.0,38.7,36.0,38.1,34.2,30.7,97,84,65,30.08,29.89,18,6,19,0.21
2013-10-28,51.0,38.0,29.0,39.5,33.5,27.8,97,84,62,30.36,30.07,9,1,10,0.01
2013-10-29,52.0,40.8,31.0,34.8,31.6,27.3,92,71,44,30.43,30.28,7,1,9,0.00
2013-10-30,64.0,45.8,32.0,41.9,36.3,30.2,96,73,35,30.29,30.10,11,1,13,0.00
2013-10-31,64.0,55.8,39.0,58.1,52.9,37.2,97,90,77,30.10,29.41,23,6,26,0.70
2013-11-1,60.0,53.8,48.0,56.4,45.5,38.0,93,74,60,29.70,29.28,41,11,43,0.20
2013-11-2,49.0,43.9,37.0,43.5,40.4,34.6,95,88,75,29.99,29.64,16,5,20,0.13
2013-11-3,39.0,33.1,25.0,35.2,27.4,20.4,94,80,55,30.50,29.99,15,3,15,0.00
2013-11-4,41.0,31.7,21.0,25.2,17.8,12.5,96,61,33,30.60,30.43,18,4,18,0.00
2013-11-5,51.0,42.5,32.0,30.6,25.7,17.2,72,52,43,30.50,30.34,16,4,18,0.00
2013-11-6,65.0,53.4,39.0,55.3,42.4,27.5,95,67,53,30.35,29.86,19,6,23,0.25
2013-11-7,55.0,40.0,33.0,53.6,36.6,23.9,97,88,61,30.06,29.86,21,7,24,0.43
2013-11-8,41.0,35.6,32.0,32.2,29.5,25.9,97,79,63,30.25,30.01,23,7,23,0.03
2013-11-9,50.0,40.8,31.0,42.0,28.7,24.0,88,63,42,30.24,29.86,27,6,31,0.08
2013-11-10,46.0,40.4,36.0,42.5,34.9,28.8,95,81,68,30.22,29.85,34,10,40,0.37
2013-11-11,42.0,36.5,28.0,35.3,30.7,26.8,99,80,57,30.21,29.99,24,7,26,0.09
2013-11-12,31.0,26.8,25.0,27.0,23.1,18.7,98,86,65,30.40,30.13,19,5,21,0.00
2013-11-13,33.0,28.4,24.0,25.2,21.7,16.9,95,77,61,30.43,30.21,21,6,23,0.01
2013-11-14,48.0,37.0,29.0,19.6,17.0,14.4,61,45,28,30.21,30.10,22,7,24,0.12
2013-11-15,52.0,42.2,32.0,27.9,20.5,15.5,62,43,25,30.15,30.07,19,4,21,0.01
2013-11-16,58.0,46.5,30.0,43.6,35.8,26.9,92,67,51,30.26,30.02,14,4,16,0.00
2013-11-17,60.0,54.9,49.0,55.8,50.3,39.0,94,85,49,30.03,29.41,33,10,33,0.38
2013-11-18,56.0,42.6,34.0,44.7,33.2,24.6,93,70,54,29.99,29.45,45,15,50,0.09
2013-11-19,35.0,31.8,23.0,27.6,24.3,20.2,91,74,61,30.42,29.99,23,5,25,0.01
2013-11-20,46.0,32.5,20.0,24.1,16.1,7.2,96,58,21,30.51,30.38,16,4,17,0.00
2013-11-21,39.0,35.9,33.0,36.7,27.1,10.5,95,73,37,30.43,30.24,16,3,16,0.10
2013-11-22,47.0,40.6,32.0,46.5,39.3,26.8,100,95,82,30.25,30.03,21,4,23,0.12
2013-11-23,32.0,26.5,18.0,27.1,20.3,7.5,98,77,60,30.23,30.07,34,10,42,0.00
2013-11-24,23.0,18.5,15.0,16.2,10.0,3.9,88,69,48,30.41,30.22,29,8,31,0.00
2013-11-25,29.0,22.0,12.0,22.9,13.1,8.1,91,70,44,30.38,30.13,24,7,27,0.00
2013-11-26,32.0,30.3,28.0,31.0,27.5,22.9,99,90,79,30.15,29.75,18,3,19,0.00
2013-11-27,30.0,27.0,21.0,29.8,24.6,14.0,99,91,68,29.97,29.67,25,5,28,0.00
2013-11-28,26.0,22.4,19.0,20.0,16.2,12.7,88,77,66,30.36,29.97,23,6,26,0.00
2013-11-29,33.0,22.6,11.0,24.2,17.3,9.1,96,81,57,30.67,30.36,8,1,9,0.01
2013-11-30,32.0,22.6,10.0,22.1,17.1,4.7,96,80,63,30.64,30.19,16,3,22,0.00
2013-12-1,36.0,30.3,20.0,30.3,25.8,18.3,95,83,70,30.19,29.94,10,1,11,0.00
2013-12-2,41.0,33.8,28.0,32.7,30.0,26.2,93,86,70,29.94,29.84,8,1,8,0.22
2013-12-3,40.0,29.6,19.0,33.4,27.7,18.5,99,93,76,29.95,29.87,6,1,7,0.10
2013-12-4,54.0,41.8,32.0,41.8,37.0,31.2,99,84,60,30.01,29.87,18,3,19,0.32
2013-12-5,60.0,48.0,34.0,53.8,42.6,31.9,93,82,75,30.05,29.79,18,7,23,0.06
2013-12-6,34.0,29.8,25.0,32.2,26.7,22.1,99,89,76,30.25,30.02,12,3,15,0.04
2013-12-7,26.0,22.7,20.0,24.0,18.0,14.0,93,82,73,30.54,30.23,21,5,22,0.00
2013-12-8,26.0,21.4,16.0,22.4,16.3,13.6,94,81,65,30.54,30.06,21,3,23,0.00
2013-12-9,35.0,30.7,26.0,34.0,26.8,18.9,97,86,71,30.07,29.87,27,9,31,0.06
2013-12-10,26.0,22.4,19.0,19.5,14.7,3.3,94,74,42,30.09,29.90,33,11,39,0.00
2013-12-11,20.0,18.1,15.0,18.5,15.3,12.6,94,88,80,30.27,30.08,23,7,24,0.00
2013-12-12,16.0,13.8,11.0,13.6,7.5,2.3,94,76,54,30.32,30.09,25,8,28,0.00
2013-12-13,25.0,19.5,15.0,19.7,14.6,5.0,88,81,64,30.27,30.06,26,7,27,0.00
2013-12-14,30.0,22.3,16.0,27.8,20.4,12.6,96,92,86,30.27,29.62,24,4,24,0.00
2013-12-15,29.0,23.2,15.0,28.5,21.4,13.6,99,93,84,29.88,29.56,29,8,31,0.00
2013-12-16,20.0,12.3,-2.0,13.8,9.0,-4.2,95,86,69,30.10,29.88,17,5,19,0.00
2013-12-17,25.0,19.0,-1.0,23.5,16.4,-3.0,98,90,79,30.03,29.85,19,4,21,0.00
2013-12-18,27.0,24.5,22.0,22.5,20.6,15.6,93,85,76,30.08,29.91,23,9,26,0.00
2013-12-19,43.0,33.4,22.0,32.3,24.4,15.0,86,70,60,30.03,29.93,19,5,19,0.46
2013-12-20,50.0,42.5,35.0,49.2,39.4,30.7,98,89,67,29.96,29.80,19,5,21,0.52
2013-12-21,54.0,47.9,40.0,52.9,47.2,38.7,100,97,94,29.82,29.62,21,4,23,1.57
2013-12-22,62.0,48.6,33.0,59.3,46.1,31.2,100,92,74,29.97,29.46,34,8,37,0.35
2013-12-23,38.0,32.0,26.0,37.2,29.2,20.1,99,89,79,30.24,29.94,24,6,26,0.02
2013-12-24,27.0,20.1,14.0,23.3,16.8,9.7,95,87,75,30.43,30.16,26,7,29,0.00
2013-12-25,23.0,15.9,5.0,18.9,10.7,3.4,94,80,63,30.44,30.14,12,3,14,0.00
2013-12-26,30.0,25.2,21.0,26.5,21.8,17.4,96,87,75,30.27,30.03,28,8,30,0.00
2013-12-27,34.0,27.7,22.0,28.6,23.2,16.5,90,83,76,30.27,30.13,17,5,19,0.00
2013-12-28,47.0,40.1,33.0,32.1,28.7,26.1,77,64,54,30.13,29.98,22,8,24,0.07
2013-12-29,41.0,37.5,28.0,37.2,30.9,25.0,97,78,58,29.98,29.63,20,3,23,0.14
2013-12-30,28.0,17.8,14.0,27.0,13.2,6.3,96,82,67,30.16,29.79,22,4,22,0.00
2013-12-31,19.0,16.0,14.0,16.6,12.1,8.1,94,84,77,30.21,29.95,27,8,98,0.00
2014-1-1,20.0,16.2,15.0,15.1,13.3,11.6,92,88,78,30.31,30.11,15,2,98,0.00
2014-1-2,16.0,10.6,3.0,13.1,7.9,-1.7,92,89,84,30.12,29.81,16,3,18,0.00